This is the latest recevied weather packets stored in our database for station/object KD8DNS. If no packets are shown the sender has not sent any weather packets the latest 10 day(s).
| Time | Temp. | Humidity | Pressure | Rain* | Wind** | Luminosity | Snow |
|---|---|---|---|---|---|---|---|
| 1788131240 | 30° C | 62% | 1020.5 hPa | 0 mm | - | 29 W/m² | - |
| 1788130935 | 30° C | 61% | 1020.4 hPa | 0 mm | - | 31 W/m² | - |
| 1788130630 | 30° C | 60% | 1020.5 hPa | 0 mm | - | 36 W/m² | - |
| 1788130330 | 30.56° C | 60% | 1020.5 hPa | 0 mm | - | 39 W/m² | - |
| 1788130028 | 30.56° C | 60% | 1020.6 hPa | 0 mm | - | 42 W/m² | - |
| 1788129725 | 30.56° C | 60% | 1020.9 hPa | 0 mm | - | 45 W/m² | - |
| 1788129421 | 30.56° C | 60% | 1020.6 hPa | 0 mm | - | 46 W/m² | - |
| 1788129116 | 30.56° C | 60% | 1020.8 hPa | 0 mm | - | 46 W/m² | - |
| 1788128811 | 30.56° C | 60% | 1020.6 hPa | 0 mm | - | 47 W/m² | - |
| 1788128506 | 31.11° C | 60% | 1020.8 hPa | 0 mm | - | 49 W/m² | - |
| 1788128202 | 31.11° C | 60% | 1020.8 hPa | 0 mm | - | 50 W/m² | - |
| 1788127897 | 30.56° C | 60% | 1020.5 hPa | 0 mm | - | 51 W/m² | - |
| 1788127593 | 30.56° C | 59% | 1020.8 hPa | 0 mm | - | 51 W/m² | - |
| 1788127286 | 30.56° C | 60% | 1020.4 hPa | 0 mm | - | 56 W/m² | - |
| 1788126986 | 31.11° C | 60% | 1020.4 hPa | 0 mm | - | 58 W/m² | - |
| 1788126680 | 31.11° C | 60% | 1020.4 hPa | 0 mm | - | 51 W/m² | - |
| 1788126375 | 31.11° C | 60% | 1020.5 hPa | 0 mm | - | 54 W/m² | - |
| 1788126069 | 30.56° C | 60% | 1020.6 hPa | 0 mm | - | 57 W/m² | - |
| 1788125764 | 31.11° C | 60% | 1020.5 hPa | 0 mm | - | 54 W/m² | - |
| 1788125459 | 31.11° C | 58% | 1020.1 hPa | 0 mm | - | 201 W/m² | - |
| 1788125154 | 31.11° C | 57% | 1020 hPa | 0 mm | - | 86 W/m² | - |
| 1788124849 | 31.67° C | 58% | 1020.2 hPa | 0 mm | - | 124 W/m² | - |
| 1788124544 | 31.11° C | 60% | 1020.2 hPa | 0 mm | - | 156 W/m² | - |
| 1788124244 | 30.56° C | 59% | 1020.1 hPa | 0 mm | - | 157 W/m² | - |
| 1788123938 | 30.56° C | 59% | 1020.4 hPa | 0 mm | - | 170 W/m² | - |
* Rain latest hour (hover to see other rain measurements)
** Current wind speed in m/s (hover to see current wind gust speed)